| time (UTC) | temp F | wind direction | speed knots | gust knots | rain 1hr in | rain 24hr in | rain mn in | humidity % | barometer mb |
| 20260505070052 | 46 | 259 | 5.2 | 13.9 | 0.21 | 1.71 | 0.64 | 98 | 1014.0 |
| 20260505064558 | 46 | 208 | 1.7 | 7.0 | 0.21 | 1.93 | 0.57 | 98 | 1013.9 |
| 20260505063052 | 46 | 178 | 5.2 | 13.9 | 0.20 | 1.87 | 0.52 | 99 | 1013.7 |
| 20260505061545 | 46 | 214 | 5.2 | 14.8 | 0.18 | 1.84 | 0.49 | 98 | 1013.3 |
| 20260505060044 | 46 | 236 | 3.5 | 9.6 | 0.11 | 1.77 | 0.42 | 99 | 1013.2 |
| 20260505054644 | 46 | 182 | 5.2 | 11.3 | 0.06 | 1.81 | 0.37 | 99 | 1013.3 |
| 20260505053041 | 46 | 229 | 3.5 | 13.9 | 0.01 | 1.76 | 0.32 | 99 | 1013.2 |
| 20260505051542 | 46 | 226 | 3.5 | 10.4 | 0.01 | 1.75 | 0.31 | 99 | 1013.0 |
| 20260505041548 | 46 | 103 | 3.5 | 12.2 | 0.00 | 1.74 | 0.30 | 98 | 1012.7 |
| 20260505040039 | 46 | 214 | 1.7 | 8.7 | 0.00 | 1.74 | 0.30 | 99 | 1012.6 |
| 20260505034541 | 46 | 199 | 2.6 | 9.6 | 0.02 | 1.74 | 0.30 | 99 | 1012.7 |
| 20260505033037 | 46 | 146 | 6.1 | 13.0 | 0.03 | 1.74 | 0.30 | 98 | 1012.6 |
| 20260505031536 | 46 | 176 | 5.2 | 13.9 | 0.10 | 1.74 | 0.30 | 98 | 1012.6 |
| 20260505030035 | 47 | 223 | 5.2 | 11.3 | 0.10 | 1.74 | 0.30 | 98 | 1012.3 |
| 20260505024542 | 47 | 230 | 2.6 | 11.3 | 0.08 | 1.72 | 0.28 | 98 | 1012.2 |
| 20260505023034 | 46 | 260 | 6.1 | 13.0 | 0.08 | 1.71 | 0.27 | 98 | 1012.4 |
| 20260505021537 | 46 | 240 | 1.7 | 7.8 | 0.02 | 1.64 | 0.20 | 98 | 1012.2 |
| 20260505020031 | 46 | 229 | 4.3 | 10.4 | 0.04 | 1.64 | 0.20 | 98 | 1012.5 |
| 20260505014532 | 45 | 136 | 4.3 | 10.4 | 0.05 | 1.64 | 0.20 | 98 | 1012.6 |
| 20260505013029 | 47 | 207 | 2.6 | 13.0 | 0.08 | 1.63 | 0.19 | 98 | 1012.3 |
| 20260505011524 | 46 | 213 | 6.1 | 13.0 | 0.10 | 1.62 | 0.18 | 98 | 1012.5 |
| 20260505010022 | 46 | 187 | 5.2 | 11.3 | 0.09 | 1.60 | 0.16 | 98 | 1012.5 |
| 20260505004522 | 46 | 200 | 1.7 | 11.3 | 0.08 | 1.59 | 0.15 | 98 | 1012.5 |
| 20260505003018 | 46 | 213 | 1.7 | 9.6 | 0.04 | 1.55 | 0.11 | 98 | 1012.8 |
| 20260505001516 | 46 | 190 | 6.1 | 15.6 | 0.02 | 1.52 | 0.08 | 98 | 1012.9 |
| 20260505000027 | 46 | 184 | 4.3 | 13.9 | 0.01 | 1.51 | 0.07 | 98 | 1013.0 |
| 20260504234509 | 46 | 134 | 2.6 | 8.7 | 0.01 | 1.51 | 0.07 | 98 | 1013.0 |
| 20260504233010 | 46 | 204 | 1.7 | 10.4 | 0.01 | 1.51 | 0.07 | 98 | 1013.2 |
| 20260504231521 | 46 | 207 | 1.7 | 11.3 | 0.03 | 1.50 | 0.06 | 98 | 1013.3 |
| 20260504230003 | 46 | 166 | 3.5 | 10.4 | 0.04 | 1.50 | 0.06 | 98 | 1013.4 |
| 20260504224603 | 46 | 206 | 2.6 | 13.0 | 0.06 | 1.53 | 0.06 | 98 | 1013.6 |
| 20260504223059 | 46 | 179 | 2.6 | 11.3 | 0.06 | 1.53 | 0.06 | 98 | 1013.6 |
| 20260504221602 | 47 | 194 | 3.5 | 8.7 | 0.03 | 1.50 | 0.03 | 98 | 1013.9 |
| 20260504220055 | 46 | 190 | 1.7 | 9.6 | 0.02 | 1.49 | 0.02 | 98 | 1014.1 |
| 20260504214550 | 47 | 159 | 2.6 | 10.4 | 0.01 | 1.47 | 0.00 | 98 | 1014.1 |
| 20260504213048 | 46 | 144 | 1.7 | 5.2 | 0.02 | 1.47 | 0.00 | 98 | 1014.2 |
| 20260504211551 | 46 | 182 | 3.5 | 12.2 | 0.02 | 1.47 | 0.00 | 98 | 1014.5 |
| 20260504204531 | 46 | 236 | 3.5 | 11.3 | 0.04 | 1.46 | 1.46 | 98 | 1014.8 |
| 20260504203034 | 46 | 197 | 4.3 | 13.9 | 0.05 | 1.45 | 1.45 | 98 | 1015.1 |
| 20260504201530 | 46 | 245 | 7.0 | 13.9 | 0.08 | 1.45 | 1.45 | 98 | 1014.9 |
| 20260504200029 | 46 | 223 | 1.7 | 7.0 | 0.05 | 1.42 | 1.42 | 97 | 1015.0 |
| 20260504194542 | 46 | 190 | 5.2 | 14.8 | 0.06 | 1.43 | 1.42 | 98 | 1015.1 |
| 20260504193030 | 46 | 230 | 1.7 | 7.0 | 0.03 | 1.40 | 1.39 | 97 | 1015.1 |
| 20260504191532 | 46 | 80 | 2.6 | 7.0 | 0.01 | 1.38 | 1.37 | 97 | 1015.0 |
| 20260504190031 | 46 | 204 | 0.9 | 7.0 | 0.01 | 1.38 | 1.37 | 98 | 1015.2 |
| 20260504184533 | 46 | 226 | 4.3 | 10.4 | 0.00 | 1.42 | 1.36 | 97 | 1015.2 |
| 20260504183024 | 46 | 196 | 3.5 | 8.7 | 0.00 | 1.42 | 1.36 | 97 | 1015.1 |
| 20260504181523 | 47 | 328 | 5.2 | 15.6 | 0.00 | 1.42 | 1.36 | 98 | 1015.0 |
| 20260504180022 | 47 | 219 | 3.5 | 13.9 | 0.05 | 1.42 | 1.36 | 98 | 1014.9 |
| 20260504174521 | 47 | 158 | 0.9 | 7.8 | 0.08 | 1.63 | 1.36 | 98 | 1014.8 |
| 20260504173021 | 46 | 223 | 7.0 | 13.0 | 0.08 | 1.63 | 1.36 | 97 | 1014.7 |
| 20260504171518 | 47 | 266 | 4.3 | 16.5 | 0.08 | 1.63 | 1.36 | 97 | 1014.6 |
| 20260504120114 | 48 | 223 | 7.0 | 14.8 | 0.03 | 1.20 | 0.78 | 97 | 1013.2 |
| 20260504081533 | 45 | 163 | 3.5 | 12.2 | 0.06 | 1.18 | 0.57 | 96 | 1014.2 |